Weather History for KLVN - June, 2014

Change the Weather History Date:

Thursday, June 12, 2014

  Actual Average Record
Temperature  
Mean Temperature 58 °F -  
Max Temperature 64 °F 80 °F 95 °F (1956)
Min Temperature 51 °F 57 °F 41 °F (1985)
Degree Days  
Heating Degree Days 8    
Growing Degree Days 8 (Base 50)    
Moisture  
Dew Point 49 °F    
Average Humidity 74    
Maximum Humidity 100    
Minimum Humidity 55    
Precipitation  
Precipitation 0.00 in - - ()
Sea Level Pressure  
Sea Level Pressure 29.85 in    
Wind  
Wind Speed 11 mph (WNW)    
Max Wind Speed 21 mph    
Max Gust Speed 31 mph    
Visibility 10 miles    
Events Rain    
Averages and records for this station are not official NWS values.
T = Trace of Precipitation, MM = Missing Value Source: NWS Daily Summary

Daily Weather History Graph

Daily Weather History Graph

Search for Another Location

Airport or City:

Trip Planner

Search our weather history database for the weather conditions in past years. The results will help you decide how hot, cold, wet, or windy it might be!

Date:

Astronomy

Jun. 12, 2014 Rise Set
Actual Time 5:27 AM CDT 8:58 PM CDT
Civil Twilight 4:50 AM CDT 9:35 PM CDT
Nautical Twilight 4:01 AM CDT 10:24 PM CDT
Astronomical Twilight 2:59 AM CDT 11:27 PM CDT
Moon 8:28 PM CDT (6/12) 5:12 AM CDT (6/12)
Length of Visible Light 16h 45m
Length of Day
15h 31m
Full, 100% of the Moon is Illuminated
Jun 12
Full
Jun 12
Full
Jun 19
Last Quarter
Jun 27
New
Jul 5
First Quarter

Hourly Weather History & Observations

Time (CDT) Temp. Dew Point Humidity Pressure Visibility Wind Dir Wind Speed Gust Speed Precip Events Conditions
12:13 AM 62.6 °F 60.8 °F 94% 29.68 in 10.0 mi Calm Calm - N/A   Overcast
12:33 AM 62.6 °F 60.8 °F 94% 29.68 in 10.0 mi Calm Calm - N/A   Overcast
12:54 AM 64.4 °F 62.6 °F 94% 29.68 in 10.0 mi SSE 4.6 mph - N/A   Overcast
1:13 AM 62.6 °F 62.6 °F 100% 29.68 in 10.0 mi Calm Calm - N/A Rain Light Rain
1:33 AM 64.4 °F 62.6 °F 94% 29.68 in 10.0 mi WSW 3.5 mph - N/A   Overcast
1:54 AM 64.4 °F 62.6 °F 94% 29.68 in 10.0 mi WSW 9.2 mph - N/A   Overcast
2:13 AM 64.4 °F 62.6 °F 94% 29.68 in 10.0 mi West 15.0 mph 20.7 mph N/A   Overcast
2:33 AM 62.6 °F 59.0 °F 88% 29.69 in 10.0 mi West 15.0 mph 21.9 mph N/A   Overcast
2:54 AM 60.8 °F 57.2 °F 88% 29.70 in 10.0 mi West 12.7 mph 23.0 mph N/A   Mostly Cloudy
3:13 AM 60.8 °F 57.2 °F 88% 29.70 in 10.0 mi West 15.0 mph 21.9 mph N/A   Overcast
3:34 AM 59.0 °F 55.4 °F 88% 29.71 in 10.0 mi West 15.0 mph 23.0 mph N/A   Overcast
3:53 AM 59.0 °F 55.4 °F 88% 29.73 in 10.0 mi West 9.2 mph 18.4 mph N/A   Overcast
4:13 AM 57.2 °F 53.6 °F 88% 29.74 in 10.0 mi West 15.0 mph 25.3 mph N/A   Overcast
4:34 AM 57.2 °F 51.8 °F 82% 29.74 in 10.0 mi WNW 18.4 mph 26.5 mph N/A   Overcast
4:53 AM 57.2 °F 51.8 °F 82% 29.75 in 10.0 mi WNW 13.8 mph 20.7 mph N/A   Overcast
5:13 AM 57.2 °F 51.8 °F 82% 29.76 in 10.0 mi WNW 17.3 mph 23.0 mph N/A   Overcast
5:34 AM 57.2 °F 51.8 °F 82% 29.77 in 10.0 mi WNW 16.1 mph 24.2 mph N/A   Overcast
5:53 AM 57.2 °F 50.0 °F 77% 29.78 in 10.0 mi WNW 19.6 mph - N/A   Overcast
6:14 AM 55.4 °F 48.2 °F 77% 29.80 in 10.0 mi WNW 16.1 mph 20.7 mph N/A   Scattered Clouds
6:33 AM 57.2 °F 48.2 °F 72% 29.81 in 10.0 mi West 12.7 mph 18.4 mph N/A   Clear
6:53 AM 57.2 °F 48.2 °F 72% 29.82 in 10.0 mi WNW 13.8 mph 18.4 mph N/A   Clear
7:14 AM 55.4 °F 48.2 °F 77% 29.82 in 10.0 mi WNW 17.3 mph 23.0 mph N/A   Mostly Cloudy
7:33 AM 55.4 °F 50.0 °F 82% 29.82 in 10.0 mi WNW 17.3 mph 24.2 mph N/A   Overcast
7:53 AM 55.4 °F 48.2 °F 77% 29.83 in 10.0 mi WNW 19.6 mph 24.2 mph N/A   Overcast
8:14 AM 55.4 °F 48.2 °F 77% 29.84 in 10.0 mi West 19.6 mph 26.5 mph N/A   Overcast
9:14 AM 55.4 °F 48.2 °F 77% 29.84 in 10.0 mi West 15.0 mph - N/A   Overcast
9:33 AM 55.4 °F 48.2 °F 77% 29.85 in 10.0 mi West 17.3 mph 23.0 mph N/A   Overcast
9:53 AM 57.2 °F 46.4 °F 67% 29.85 in 10.0 mi West 16.1 mph 31.1 mph N/A   Overcast
10:14 AM 57.2 °F 46.4 °F 67% 29.86 in 10.0 mi West 15.0 mph 26.5 mph N/A   Overcast
10:33 AM 57.2 °F 46.4 °F 67% 29.86 in 10.0 mi West 20.7 mph 24.2 mph N/A   Overcast
10:53 AM 57.2 °F 46.4 °F 67% 29.87 in 10.0 mi West 16.1 mph 26.5 mph N/A   Overcast
11:14 AM 57.2 °F 46.4 °F 67% 29.88 in 10.0 mi West 18.4 mph 25.3 mph N/A   Overcast
11:33 AM 55.4 °F 46.4 °F 72% 29.88 in 10.0 mi WNW 20.7 mph 27.6 mph N/A   Overcast
11:54 AM 55.4 °F 46.4 °F 72% 29.89 in 10.0 mi West 19.6 mph 25.3 mph N/A   Overcast
12:14 PM 55.4 °F 46.4 °F 72% 29.90 in 10.0 mi West 17.3 mph 25.3 mph N/A   Overcast
12:33 PM 55.4 °F 46.4 °F 72% 29.90 in 10.0 mi WNW 12.7 mph 21.9 mph N/A   Overcast
12:54 PM 57.2 °F 46.4 °F 67% 29.90 in 10.0 mi WNW 16.1 mph 23.0 mph N/A   Overcast
1:13 PM 57.2 °F 46.4 °F 67% 29.89 in 10.0 mi WNW 16.1 mph 25.3 mph N/A   Overcast
1:33 PM 57.2 °F 46.4 °F 67% 29.90 in 10.0 mi West 16.1 mph 23.0 mph N/A   Overcast
1:54 PM 57.2 °F 46.4 °F 67% 29.89 in 10.0 mi WNW 11.5 mph 21.9 mph N/A   Overcast
2:13 PM 59.0 °F 46.4 °F 63% 29.89 in 10.0 mi WNW 17.3 mph 25.3 mph N/A   Overcast
2:34 PM 59.0 °F 46.4 °F 63% 29.89 in 10.0 mi WNW 19.6 mph 26.5 mph N/A   Overcast
2:54 PM 60.8 °F 48.2 °F 63% 29.89 in 10.0 mi NW 20.7 mph 27.6 mph N/A   Overcast
3:13 PM 60.8 °F 46.4 °F 59% 29.89 in 10.0 mi West 19.6 mph 26.5 mph N/A   Overcast
3:34 PM 59.0 °F 46.4 °F 63% 29.89 in 10.0 mi West 17.3 mph 25.3 mph N/A   Overcast
3:53 PM 60.8 °F 46.4 °F 59% 29.89 in 10.0 mi West 19.6 mph 27.6 mph N/A   Overcast
4:13 PM 60.8 °F 46.4 °F 59% 29.90 in 10.0 mi NW 19.6 mph 27.6 mph N/A   Overcast
4:34 PM 60.8 °F 46.4 °F 59% 29.90 in 10.0 mi WNW 18.4 mph 24.2 mph N/A   Overcast
4:53 PM 59.0 °F 46.4 °F 63% 29.91 in 10.0 mi NW 20.7 mph 25.3 mph N/A   Overcast
5:14 PM 60.8 °F 46.4 °F 59% 29.91 in 10.0 mi NW 17.3 mph 26.5 mph N/A   Overcast
5:33 PM 59.0 °F 46.4 °F 63% 29.92 in 10.0 mi NW 15.0 mph 23.0 mph N/A   Overcast
5:53 PM 59.0 °F 44.6 °F 59% 29.93 in 10.0 mi NW 18.4 mph 21.9 mph N/A   Overcast
6:14 PM 59.0 °F 44.6 °F 59% 29.93 in 10.0 mi NNW 13.8 mph 21.9 mph N/A   Mostly Cloudy
6:33 PM 60.8 °F 46.4 °F 59% 29.93 in 10.0 mi NW 15.0 mph 20.7 mph N/A   Scattered Clouds
6:53 PM 59.0 °F 44.6 °F 59% 29.93 in 10.0 mi NW 12.7 mph 20.7 mph N/A   Scattered Clouds
7:14 PM 60.8 °F 44.6 °F 55% 29.94 in 10.0 mi WNW 15.0 mph 20.7 mph N/A   Clear
7:33 PM 59.0 °F 44.6 °F 59% 29.95 in 10.0 mi WNW 8.1 mph - N/A   Clear
7:53 PM 59.0 °F 44.6 °F 59% 29.95 in 10.0 mi WNW 8.1 mph - N/A   Clear
8:13 PM 57.2 °F 46.4 °F 67% 29.96 in 10.0 mi West 4.6 mph - N/A   Clear
8:33 PM 55.4 °F 46.4 °F 72% 29.96 in 10.0 mi West 4.6 mph - N/A   Clear
8:54 PM 55.4 °F 46.4 °F 72% 29.96 in 10.0 mi WSW 4.6 mph - N/A   Clear
9:13 PM 55.4 °F 46.4 °F 72% 29.96 in 10.0 mi WSW 4.6 mph - N/A   Clear
9:33 PM 55.4 °F 46.4 °F 72% 29.97 in 10.0 mi WSW 3.5 mph - N/A   Clear
10:13 PM 53.6 °F 46.4 °F 77% 29.97 in 10.0 mi WSW 4.6 mph - N/A   Clear
10:33 PM 53.6 °F 46.4 °F 77% 29.98 in 10.0 mi West 6.9 mph - N/A   Clear
10:54 PM 53.6 °F 46.4 °F 77% 29.98 in 10.0 mi West 6.9 mph - N/A   Clear
11:13 PM 51.8 °F 46.4 °F 82% 29.98 in 10.0 mi West 6.9 mph - N/A   Clear
11:34 PM 51.8 °F 46.4 °F 82% 29.98 in 10.0 mi West 5.8 mph - N/A   Clear
11:54 PM 51.8 °F 46.4 °F 82% 29.98 in 10.0 mi West 5.8 mph - N/A   Clear